DW3390 Weather Reports


time (UTC)temp
C
wind
direction
speed
KPH
gust
KPH
rain 1hr
cm
rain 24hr
cm
rain mn
cm
humidity
%
barometer
mb
20260502160507 18 147 0.0 4.8 0.00 0.00 0.00 56 1009.9
20260502152000 18 171 0.0 1.6 0.00 0.00 0.00 54 1010.5
20260502151607 18 169 0.0 8.0 0.00 0.00 0.00 55 1010.6
20260502151103 18 134 0.0 8.0 0.00 0.00 0.00 54 1010.8
20260502150558 18 146 0.0 3.2 0.00 0.00 0.00 54 1010.9
20260502130548 19 181 0.0 3.2 0.00 0.00 0.00 54 1012.4
20260502123540 18 148 0.0 4.8 0.00 0.00 0.00 55 1012.7
20260502123039 18 229 0.0 3.2 0.00 0.00 0.00 54 1012.9
20260502122539 18 287 0.0 16.1 0.00 0.00 0.00 57 1013.0
20260502122037 18 163 1.6 16.1 0.00 0.00 0.00 55 1013.0
20260502121539 18 289 0.0 11.3 0.00 0.00 0.00 55 1013.1
20260502121037 18 167 0.0 11.3 0.00 0.00 0.00 56 1013.1
20260502120537 18 143 0.0 11.3 0.00 0.00 0.00 55 1013.2
20260502115534 18 63 0.0 4.8 0.00 0.00 0.00 58 1013.2
20260502115037 17 266 0.0 6.4 0.00 0.00 0.00 59 1013.4
20260502114532 17 153 0.0 6.4 0.00 0.00 0.00 58 1013.3
20260502114031 17 242 0.0 4.8 0.00 0.00 0.00 59 1013.4
20260502113530 17 246 0.0 11.3 0.00 0.00 0.00 58 1013.6
20260502113029 17 267 0.0 11.3 0.00 0.00 0.00 59 1013.6
20260502112528 17 142 0.0 6.4 0.00 0.00 0.00 60 1013.7
20260502112027 17 125 0.0 4.8 0.00 0.00 0.00 61 1013.7
20260502111526 16 45 0.0 3.2 0.00 0.00 0.00 62 1013.9
20260502111025 16 273 0.0 3.2 0.00 0.00 0.00 63 1014.0
20260502110525 16 268 0.0 1.6 0.00 0.00 0.00 63 1013.9
20260502110024 16 280 0.0 9.7 0.00 0.00 0.00 62 1014.0
20260502105527 16 230 0.0 9.7 0.00 0.00 0.00 65 1014.0
20260502105026 16 252 0.0 3.2 0.00 0.00 0.00 67 1014.0
20260502104519 15 76 0.0 4.8 0.00 0.00 0.00 68 1014.1
20260502104018 15 254 0.0 4.8 0.00 0.00 0.00 69 1014.2
20260502103517 15 235 0.0 4.8 0.00 0.00 0.00 70 1014.4
20260502103020 15 202 0.0 1.6 0.00 0.00 0.00 71 1014.5
20260502102514 15 169 0.0 4.8 0.00 0.00 0.00 71 1014.5
20260502102014 15 169 0.0 4.8 0.00 0.00 0.00 71 1014.5
20260502101513 15 266 0.0 4.8 0.00 0.00 0.00 72 1014.5
20260502101012 15 140 0.0 4.8 0.00 0.00 0.00 73 1014.4
20260502100511 15 264 0.0 1.6 0.00 0.00 0.00 74 1014.5
20260502091505 13 257 0.0 0.0 0.00 0.00 0.00 75 1015.0
20260502091001 13 238 0.0 0.0 0.00 0.00 0.00 76 1015.1
20260502090502 13 121 0.0 0.0 0.00 0.00 0.00 78 1015.1
20260502080104 10 338 0.0 0.0 0.00 0.00 0.00 90 1015.4
20260502071045 9 247 0.0 0.0 0.00 0.00 0.00 94 1015.6
20260502070545 9 247 0.0 0.0 0.00 0.00 0.00 94 1015.6
20260502070045 9 247 0.0 0.0 0.00 0.00 0.00 94 1015.7
20260502065544 9 248 0.0 0.0 0.00 0.00 0.00 94 1015.6
20260502065047 9 248 0.0 0.0 0.00 0.00 0.00 94 1015.5
20260502064555 9 296 0.0 0.0 0.00 0.00 0.00 95 1015.6
20260502064042 9 296 0.0 0.0 0.00 0.00 0.00 95 1015.6
20260502063541 9 242 0.0 0.0 0.00 0.00 0.00 95 1015.5
20260502063041 9 241 0.0 0.0 0.00 0.00 0.00 95 1015.5
20260502062541 9 241 0.0 0.0 0.00 0.00 0.00 95 1015.5
20260502062040 9 241 0.0 0.0 0.00 0.00 0.00 95 1015.6
20260502061539 9 242 0.0 0.0 0.00 0.00 0.00 95 1015.4
20260502061038 9 242 0.0 0.0 0.00 0.00 0.00 95 1015.4
20260502060538 9 242 0.0 0.0 0.00 0.00 0.00 95 1015.4
20260502060039 9 240 0.0 0.0 0.00 0.00 0.00 95 1015.4
20260502055537 9 240 0.0 0.0 0.00 0.00 0.00 95 1015.4
20260502055037 9 240 0.0 0.0 0.00 0.00 0.00 95 1015.4
20260502054542 9 221 0.0 0.0 0.00 0.00 0.00 95 1015.3
20260502054039 9 221 0.0 0.0 0.00 0.00 0.00 95 1015.3
20260502053536 9 221 0.0 0.0 0.00 0.00 0.00 95 1015.3
20260502053037 9 219 0.0 0.0 0.00 0.00 0.00 95 1015.3
20260502052535 8 219 0.0 0.0 0.00 0.00 0.00 94 1015.3
20260502052037 8 229 0.0 0.0 0.00 0.00 0.00 94 1015.3
20260502051539 8 229 0.0 0.0 0.00 0.00 0.00 94 1015.2
20260502051034 8 229 0.0 0.0 0.00 0.00 0.00 94 1015.2
20260502050533 8 229 0.0 0.0 0.00 0.00 0.00 94 1015.2
20260502050032 8 229 0.0 0.0 0.00 0.00 0.00 94 1015.2
20260502045531 8 229 0.0 0.0 0.00 0.00 0.00 94 1015.3
20260502045032 8 229 0.0 0.0 0.00 0.00 0.00 93 1015.2
20260502044029 8 229 0.0 0.0 0.00 0.00 0.00 93 1015.1
20260502043528 8 229 0.0 0.0 0.00 0.00 0.00 93 1015.2
20260502043030 8 229 0.0 0.0 0.00 0.00 0.00 93 1015.2
20260502042528 8 229 0.0 0.0 0.00 0.00 0.00 93 1015.2
20260502042028 8 229 0.0 0.0 0.00 0.00 0.00 93 1015.2
20260502041528 8 256 0.0 0.0 0.00 0.00 0.00 92 1015.2
20260502041026 8 256 0.0 0.0 0.00 0.00 0.00 92 1015.3
20260502040526 8 256 0.0 0.0 0.00 0.00 0.00 92 1015.4
20260502040037 8 257 0.0 0.0 0.00 0.00 0.00 92 1015.4
20260502035526 8 328 0.0 0.0 0.00 0.00 0.00 92 1015.3
20260502035025 8 268 0.0 0.0 0.00 0.00 0.00 92 1015.4
20260502034527 8 315 0.0 0.0 0.00 0.00 0.00 91 1015.3
20260502034024 8 323 0.0 0.0 0.00 0.00 0.00 91 1015.4
20260502033524 8 350 0.0 0.0 0.00 0.00 0.00 91 1015.4
20260502033023 9 257 0.0 0.0 0.00 0.00 0.00 91 1015.4
20260502032522 9 257 0.0 0.0 0.00 0.00 0.00 91 1015.5
20260502032021 9 257 0.0 0.0 0.00 0.00 0.00 91 1015.6
20260502031521 9 257 0.0 0.0 0.00 0.00 0.00 91 1015.6
20260502031021 9 257 0.0 0.0 0.00 0.00 0.00 91 1015.6
20260502030521 9 257 0.0 0.0 0.00 0.00 0.00 91 1015.6
20260502030025 9 257 0.0 0.0 0.00 0.00 0.00 91 1015.6
20260502025520 9 257 0.0 0.0 0.00 0.00 0.00 91 1015.6
20260502025019 9 257 0.0 0.0 0.00 0.00 0.00 91 1015.5
20260502024523 9 257 0.0 0.0 0.00 0.00 0.00 91 1015.5
20260502024018 9 257 0.0 0.0 0.00 0.00 0.00 91 1015.6
20260502023519 9 252 0.0 0.0 0.00 0.00 0.00 91 1015.6
20260502023018 9 252 0.0 0.0 0.00 0.00 0.00 91 1015.6
20260502022518 9 252 0.0 0.0 0.00 0.00 0.00 91 1015.7
20260502022021 9 252 0.0 0.0 0.00 0.00 0.00 91 1015.6
20260502021516 9 252 0.0 0.0 0.00 0.00 0.00 91 1015.7
20260502021015 9 252 0.0 0.0 0.00 0.00 0.00 90 1015.7
20260502020515 9 252 0.0 0.0 0.00 0.00 0.00 90 1015.7
20260502020014 10 252 0.0 0.0 0.00 0.00 0.00 91 1015.8
20260502015515 10 253 0.0 0.0 0.00 0.00 0.00 91 1015.7
20260502015013 10 253 0.0 0.0 0.00 0.00 0.00 91 1015.8
20260502014532 10 253 0.0 0.0 0.00 0.00 0.00 91 1015.8
20260502014012 10 253 0.0 0.0 0.00 0.00 0.00 91 1015.9
20260502013512 10 253 0.0 0.0 0.00 0.00 0.00 91 1016.0
20260502013010 10 253 0.0 0.0 0.00 0.00 0.00 91 1016.0
20260502012510 10 253 0.0 0.0 0.00 0.00 0.00 91 1016.1
20260502012010 10 253 0.0 0.0 0.00 0.00 0.00 91 1016.1
20260502011508 10 253 0.0 0.0 0.00 0.00 0.00 90 1016.2
20260502011008 10 253 0.0 0.0 0.00 0.00 0.00 90 1016.2
20260502010508 10 253 0.0 0.0 0.00 0.00 0.00 90 1016.2
20260502010007 10 253 0.0 0.0 0.00 0.00 0.00 90 1016.3
20260502005506 10 253 0.0 0.0 0.00 0.00 0.00 90 1016.4
20260502005005 10 253 0.0 0.0 0.00 0.00 0.00 90 1016.4
20260502004504 10 253 0.0 0.0 0.00 0.00 0.00 90 1016.5
20260502004004 10 253 0.0 0.0 0.00 0.00 0.00 90 1016.5
20260502003502 10 253 0.0 0.0 0.00 0.00 0.00 90 1016.6
20260502003001 10 253 0.0 0.0 0.00 0.00 0.00 90 1016.6
20260502002502 10 253 0.0 0.0 0.00 0.00 0.00 90 1016.6
20260502002002 11 253 0.0 0.0 0.00 0.00 0.00 90 1016.6
20260502001634 11 253 0.0 0.0 0.00 0.00 0.00 89 1016.6
20260502001101 11 253 0.0 0.0 0.00 0.00 0.00 89 1016.6
20260502000558 11 253 0.0 0.0 0.00 0.00 0.00 89 1016.6
20260502000058 11 256 0.0 0.0 0.00 0.00 0.00 89 1016.7
20260501235557 11 256 0.0 0.0 0.00 0.00 0.00 89 1016.6
20260501235056 11 256 0.0 0.0 0.00 0.00 0.00 89 1016.6
20260501234555 11 256 0.0 0.0 0.00 0.00 0.00 89 1016.7
20260501234055 11 256 0.0 0.0 0.00 0.00 0.00 88 1016.7
20260501233554 11 256 0.0 3.2 0.00 0.00 0.00 88 1016.6
20260501233054 11 256 0.0 3.2 0.00 0.00 0.00 88 1016.7
20260501232554 12 256 0.0 0.0 0.00 0.00 0.00 88 1016.7
20260501232056 12 256 0.0 0.0 0.00 0.00 0.00 87 1016.7
20260501231552 12 256 0.0 0.0 0.00 0.00 0.00 87 1016.8
20260501231051 12 256 0.0 0.0 0.00 0.00 0.00 87 1016.8
20260501230551 12 256 0.0 0.0 0.00 0.00 0.00 86 1016.7
20260501230050 12 229 0.0 4.8 0.00 0.00 0.00 86 1016.7
20260501225550 12 229 0.0 4.8 0.00 0.00 0.00 86 1016.7
20260501225050 12 229 0.0 8.0 0.00 0.00 0.00 86 1016.7
20260501224557 12 229 3.2 8.0 0.00 0.00 0.00 87 1016.7
20260501224048 12 262 0.0 0.0 0.00 0.00 0.00 86 1016.7
20260501223550 12 262 0.0 0.0 0.00 0.00 0.00 86 1016.9
20260501223048 12 262 0.0 0.0 0.00 0.00 0.00 86 1016.9
20260501222548 12 262 0.0 0.0 0.00 0.00 0.00 85 1016.9
20260501222048 12 262 0.0 0.0 0.00 0.00 0.00 85 1016.9
20260501221547 12 262 0.0 0.0 0.00 0.00 0.00 85 1017.0
20260501221047 13 262 0.0 0.0 0.00 0.00 0.00 85 1017.0
20260501220547 13 262 0.0 0.0 0.00 0.00 0.00 85 1016.9
20260501220050 13 262 0.0 0.0 0.00 0.00 0.00 85 1016.9
20260501215547 13 262 0.0 1.6 0.00 0.00 0.00 84 1016.9
20260501215047 13 262 0.0 1.6 0.00 0.00 0.00 84 1016.9
20260501214546 13 263 0.0 0.0 0.00 0.00 0.00 84 1016.8
20260501214045 13 263 0.0 1.6 0.00 0.00 0.00 84 1016.8
20260501213545 13 263 0.0 1.6 0.00 0.00 0.00 84 1016.9
20260501213051 13 263 0.0 1.6 0.00 0.00 0.00 84 1016.9
20260501212545 13 263 0.0 0.0 0.00 0.00 0.00 83 1016.9
20260501212045 13 265 0.0 0.0 0.00 0.00 0.00 83 1016.8
20260501211549 13 265 0.0 0.0 0.00 0.00 0.00 83 1016.8
20260501211049 13 265 0.0 1.6 0.00 0.00 0.00 83 1016.8
20260501210544 13 265 0.0 3.2 0.00 0.00 0.00 83 1016.9
20260501210054 13 265 0.0 3.2 0.00 0.00 0.00 83 1016.8
20260501205550 13 265 0.0 1.6 0.00 0.00 0.00 83 1016.8
20260501205044 13 265 0.0 1.6 0.00 0.00 0.00 83 1016.8
20260501204546 13 265 0.0 3.2 0.00 0.00 0.00 83 1016.8
20260501204043 13 265 0.0 3.2 0.00 0.00 0.00 83 1016.9
20260501203543 13 265 0.0 3.2 0.00 0.00 0.00 83 1016.9
20260501203043 13 265 0.0 3.2 0.00 0.00 0.00 83 1016.8
20260501202543 13 273 0.0 0.0 0.00 0.00 0.00 82 1016.7
20260501202043 13 320 0.0 3.2 0.00 0.00 0.00 82 1016.8
20260501201543 13 345 0.0 3.2 0.00 0.00 0.00 82 1016.7
20260501201046 14 230 0.0 4.8 0.00 0.00 0.00 82 1016.7
20260501200542 14 231 1.6 4.8 0.00 0.00 0.00 81 1016.7
20260501200043 14 229 0.0 4.8 0.00 0.00 0.00 81 1016.7
20260501195542 14 228 1.6 6.4 0.00 0.00 0.00 81 1016.7
20260501195042 14 265 1.6 6.4 0.00 0.00 0.00 81 1016.5
20260501194541 15 267 0.0 3.2 0.00 0.00 0.00 81 1016.5
20260501194042 15 296 0.0 3.2 0.00 0.00 0.00 80 1016.4
20260501193540 15 296 0.0 3.2 0.00 0.00 0.00 80 1016.4
20260501193040 15 296 0.0 3.2 0.00 0.00 0.00 80 1016.4
20260501192540 15 296 0.0 3.2 0.00 0.00 0.00 80 1016.4
20260501192039 15 295 0.0 4.8 0.00 0.00 0.00 79 1016.4
20260501191539 15 249 1.6 8.0 0.00 0.00 0.00 79 1016.4
20260501191039 15 248 1.6 8.0 0.00 0.00 0.00 78 1016.4
20260501190538 15 257 0.0 6.4 0.00 0.00 0.00 78 1016.4
20260501190038 16 24 1.6 6.4 0.00 0.00 0.00 77 1016.3
20260501185538 16 244 1.6 6.4 0.00 0.00 0.00 77 1016.3
20260501185037 16 243 1.6 6.4 0.00 0.00 0.00 76 1016.3
20260501184536 16 243 1.6 8.0 0.00 0.00 0.00 75 1016.3
20260501184036 16 232 3.2 9.7 0.00 0.00 0.00 75 1016.3
20260501183536 17 263 1.6 6.4 0.00 0.00 0.00 74 1016.3
20260501183036 17 259 1.6 8.0 0.00 0.00 0.00 73 1016.2
20260501182535 17 257 3.2 8.0 0.00 0.00 0.00 72 1016.2
20260501182034 17 263 1.6 8.0 0.00 0.00 0.00 71 1016.3
20260501181536 18 327 3.2 6.4 0.00 0.00 0.00 70 1016.3
20260501181036 18 245 1.6 6.4 0.00 0.00 0.00 69 1016.2
20260501180534 18 242 3.2 11.3 0.00 0.00 0.00 68 1016.1
20260501180040 18 244 3.2 11.3 0.00 0.00 0.00 68 1016.1
20260501175534 18 233 0.0 12.9 0.00 0.00 0.00 67 1016.0
20260501175033 19 258 4.8 12.9 0.00 0.00 0.00 67 1016.0
20260501174534 19 245 1.6 12.9 0.00 0.00 0.00 66 1015.9
20260501174032 19 258 3.2 12.9 0.00 0.00 0.00 66 1015.8
20260501173533 20 286 1.6 9.7 0.00 0.00 0.00 66 1015.9
20260501173032 20 217 1.6 12.9 0.00 0.00 0.00 66 1015.9
20260501172532 20 248 3.2 12.9 0.00 0.00 0.00 67 1015.9
20260501172032 20 263 4.8 11.3 0.00 0.00 0.00 67 1015.9
20260501171531 20 225 3.2 14.5 0.00 0.00 0.00 66 1015.8
20260501171031 20 232 4.8 14.5 0.00 0.00 0.00 66 1015.9
20260501170531 20 258 4.8 12.9 0.00 0.00 0.00 64 1015.9
20260501170031 20 259 3.2 12.9 0.00 0.00 0.00 65 1015.9
20260501165531 20 266 3.2 12.9 0.00 0.00 0.00 64 1015.8
20260501165033 20 247 4.8 11.3 0.00 0.00 0.00 64 1015.9
20260501164532 20 232 4.8 14.5 0.00 0.00 0.00 63 1016.0
20260501164029 20 244 4.8 14.5 0.00 0.00 0.00 62 1015.9
20260501163529 21 240 3.2 14.5 0.00 0.00 0.00 62 1015.9
20260501163029 21 242 4.8 12.9 0.00 0.00 0.00 62 1015.9
20260501162529 21 299 3.2 12.9 0.00 0.00 0.00 61 1015.8
20260501162031 21 254 3.2 16.1 0.00 0.00 0.00 61 1015.9
20260501161529 21 217 4.8 16.1 0.00 0.00 0.00 61 1015.8
20260501161028 21 250 6.4 14.5 0.00 0.00 0.00 60 1015.9
20260501160528 22 246 3.2 12.9 0.00 0.00 0.00 60 1015.9